DEIMOS

导读

DEIMOS(火卫二)是由美国耐力卫星公司研发的1.5U纳型技术试验卫星,于2024年8月16日搭乘猎鹰9号火箭从范登堡SLC-4E发射升空,运行在近地点485公里、远地点495公里,倾角97.4°的太阳同步轨道上。该卫星携带两台摄像头,核心任务是在轨测试机器学习空中更新、强化学习等前沿空间技术,目前卫星状态良好,稳定在轨运行。

基本信息
目录编号:
60526
目录名称:
DEIMOS
国际标识:
2024-149BL
轨道中心:
EARTH
卫星名称:
DEIMOS
卫星全名:
DEIMOS
卫星状态:
在轨 (已飞行668 天)
发射日期:
2024-08-16 UTC
国别 :
美国 (US)
星等 :
--
轨道信息
数据来源 国际轨道数据
星历时间: 2026-06-15T11:23:50+0800
12小时前
查看轨道信息
半长轴: 6811.977km
偏心率: 0.0004024
轨道倾角: 97.379°
近地点辐角 292.144°
升交点赤经 252.252°
平近点角 67.938°
近地点: 431.098km
远地点: 436.582km
周期: 93.254分钟
每日圈数: 15.441628
详细信息
使用方式:
暂无
2D轨道图
3D轨道图
轨道高度分析图
轨道倾角分析图
轨道综合分析图
查看轨道综合分析图